Flag for Germany Weather past 2 weeks in Göttingen, Lower Saxony, Germany

Now
52 °F

Light fog.


Feels Like: 52 °F
Forecast: 57 / 90 °F
Wind: 2 mph from North

Location: Kassel / Calden

Current Time: Aug 5, 2015 at 6:57:39 AM

Latest Report: Aug 5, 2015 at 6:20 AM


Visibility: 5 mi

Pressure: 30.12 "Hg

Humidity: 100%

Dew point: 52 °F

Location of GöttingenLocation

Historic Weather in Göttingen — Graph

°F

Göttingen temperature yesterday

Maximum temperature yesterday: 88 °F (at 12:50 PM)
Minimum temperature yesterday: 61 °F (at 9:50 PM)
Average temperature yesterday: 73 °F

Past Weeks' High & Low Weather Summary

 TemperatureHumidityPressure
High88 °F (Aug 3, 3:50 PM)100% (Jul 21, 6:50 AM)30.15 "Hg (Jul 21, 6:50 AM)
Low45 °F (Jul 31, 6:20 AM)29% (Aug 3, 4:20 PM)29.56 "Hg (Jul 25, 10:20 AM)
Average66 °F62%29.91 "Hg
* Reported Jul 20 9:20 PM — Aug 4 9:50 PM, Göttingen, Weather by CustomWeather, © 2015

Note: Actual official high and low records may vary slightly from our data, if they occured in-between our weather recording intervals... More about our weather records

Advertising

Göttingen weather history for previous 24 hours

 ConditionsComfort  
Time TempWeatherWind HumidityBarometerVisibility
9:50 PM
Tue, Aug 4
61 °FMore clouds than sun.13 mph94%30.04 "HgN/A
9:20 PM63 °FBroken clouds.13 mph94%30.04 "HgN/A
8:50 PM63 °FBroken clouds.15 mph94%30.01 "HgN/A
8:20 PM63 °FLight rain. Broken clouds.13 mph94%30.01 "HgN/A
7:50 PM66 °FLight rain. Broken clouds.12 mph88%30.01 "HgN/A
7:20 PM68 °FBroken clouds.6 mph83%29.98 "HgN/A
6:50 PM68 °FPartly sunny.9 mph83%29.98 "HgN/A
6:20 PM68 °FPartly sunny.8 mph83%29.98 "HgN/A
5:50 PM68 °FPartly sunny.9 mph83%29.98 "HgN/A
5:20 PM66 °FLight rain. Partly sunny.7 mph88%29.98 "HgN/A
4:50 PM68 °FLight rain. More clouds than sun.10 mph78%29.98 "HgN/A
4:20 PM73 °FPartly sunny.9 mph65%29.98 "HgN/A
3:50 PM75 °FLight rain. Partly sunny.13 mph57%29.95 "HgN/A
3:20 PM77 °FSunny.20 mph51%29.92 "Hg10 mi
2:50 PM79 °FSunny.22 mph48%29.92 "Hg10 mi
2:20 PM81 °FSunny.24 mph45%29.89 "Hg10 mi
1:50 PM84 °FSunny.15 mph43%29.89 "Hg10 mi
1:20 PM86 °FSunny.15 mph38%29.86 "Hg10 mi
12:50 PM88 °FPassing clouds.14 mph38%29.86 "HgN/A
12:20 PM86 °FSunny.13 mph38%29.89 "Hg10 mi
11:50 AM86 °FSunny.13 mph40%29.86 "Hg10 mi
11:20 AM84 °FSunny.14 mph43%29.89 "Hg10 mi
10:50 AM82 °FSunny.10 mph42%29.89 "Hg10 mi
10:20 AM81 °FSunny.12 mph45%29.89 "Hg10 mi
9:50 AM79 °FSunny.14 mph48%29.89 "Hg10 mi
9:20 AM77 °FSunny.10 mph51%29.89 "Hg10 mi
8:50 AM75 °FSunny.12 mph54%29.89 "Hg10 mi
8:20 AM73 °FSunny.13 mph57%29.89 "Hg10 mi
7:50 AM70 °FSunny.13 mph64%29.92 "Hg10 mi
7:20 AM70 °FSunny.12 mph60%29.92 "Hg10 mi
6:50 AM68 °FSunny.2 mph64%29.92 "Hg10 mi
6:20 AM64 °FClear.2 mph73%29.92 "Hg10 mi
Weather by CustomWeather, © 2015

See weather overviewHow to use our weather pages